Location: Newark
(51.2625°N, 13.3939°E)
Time: 23:38:54
(UTC+00:00)

Transit 2A Rocket - Visible Passes

Search period start: 22 November 2019 00:00
Search period end: 02 December 2019 00:00
Orbit: 594 x 909 km, 66.7° (Epoch: 22 November)

Date Brightness Start Highest point End Pass type
(mag) Time Alt. Az. Time Alt. Az. Time Alt. Az.
22 Nov 7.4 02:31:51 14° ENE 02:31:51 14° ENE 02:32:56 10° ENE visible
22 Nov 4.5 04:11:47 49° NNW 04:12:55 79° NE 04:17:26 10° SE visible
22 Nov 6.3 05:52:12 10° WNW 05:54:56 16° WSW 05:57:43 10° SSW visible
23 Nov 5.4 03:30:49 47° ENE 03:30:49 47° ENE 03:34:41 10° ESE visible
23 Nov 5.6 05:10:46 20° WNW 05:12:38 27° WSW 05:16:28 10° S visible
24 Nov 7.0 02:49:56 20° E 02:49:56 20° E 02:51:40 10° ESE visible
24 Nov 4.8 04:29:52 43° WSW 04:30:17 45° WSW 04:34:37 10° SSE visible
25 Nov 5.2 03:49:03 47° SSE 03:49:03 47° SSE 03:52:22 10° SSE visible
25 Nov 6.5 05:28:59 11° W 05:29:38 11° WSW 05:31:04 10° SW visible
26 Nov 6.8 03:08:18 20° SE 03:08:18 20° SE 03:09:48 10° SE visible
26 Nov 6.2 04:48:15 19° SW 04:48:15 19° SW 04:50:41 10° SSW visible
27 Nov 6.4 04:07:34 19° SSW 04:07:34 19° SSW 04:09:10 10° S visible
28 Nov 7.3 03:26:57 11° SSE 03:26:57 11° SSE 03:27:10 10° SSE visible
29 Nov 6.9 17:17:01 10° SSE 17:17:30 12° SSE 17:17:30 12° SSE visible
30 Nov 6.6 18:15:09 10° SSW 18:16:42 21° SSW 18:16:42 21° SSW visible
01 Dec 5.6 17:32:57 10° S 17:35:54 32° SSE 17:35:54 32° SSE visible
01 Dec 7.7 19:15:45 10° WSW 19:15:50 10° WSW 19:15:50 10° WSW visible
